Regional Weather Roundup
Issued by NWS

Home | Current Version | Previous Version | Graphics & Text | Print | Product List | Glossary On
Versions: 1 2 3 4 5 6 7 8 9 10 11 12 13 14 15 16 17 18 19 20 21 22 23 24 25 26 27 28 29 30 31 32 33 34 35 36 37 38 39 40 41 42 43 44 45 46 47 48 49 50
000
ASUS43 KIND 020859
RWRIN

WEATHER ROUNDUP FOR INDIANA
NATIONAL WEATHER SERVICE INDIANAPOLIS IN
400 AM EST FRI DEC 02 2016

NOTE: "FAIR" INDICATES FEW OR NO CLOUDS BELOW 12,000 FEET WITH NO
SIGNIFICANT WEATHER AND/OR OBSTRUCTIONS TO VISIBILITY.

* - STATION DOES NOT REPORT WEATHER SUCH AS PRECIPITATION OR FOG.

+ - STATION NOT QUALITY CONTROLLED BY THE NATIONAL WEATHER SERVICE.
    USE DATA WITH CAUTION...ESPECIALLY DEWPOINT AND RELATIVE
    HUMIDITY OBSERVATIONS.

INZ001>003-010>013-019-020-021000-
NORTHWEST INDIANA

CITY           SKY/WX    TMP DP  RH WIND       PRES   REMARKS
MONTICELLO +   CLOUDY    36  29  75 W9        30.07S

$$

LMZ046-743>745-021000-
SOUTHERN LAKE MICHIGAN

STATION/POSITION TIME  TEMP    WIND        PRES    WAVE
                       AIR SEA DIR/SP/G            HT
                 (UTC) (F)     (DEG/KT/KT) (MB)    (FT)
BURNS HARBOR     0840   38     230/ 10/ 13 1017.6R
MICHIGAN CITY    0830   39     240/ 20/ 22   N/A

$$

INZ004-005-014>016-021>024-021000-
NORTH CENTRAL INDIANA

CITY           SKY/WX    TMP DP  RH WIND       PRES   REMARKS
GOSHEN         CLOUDY    37  31  78 SW13      30.02R
SOUTH BEND     CLOUDY    36  32  85 SW15      30.02S

$$

INZ006>009-017-018-025>027-021000-
NORTHEAST INDIANA

CITY           SKY/WX    TMP DP  RH WIND       PRES   REMARKS
ANGOLA *+      CLOUDY    36  34  93 W9        29.99R
FORT WAYNE     CLOUDY    36  31  82 W10       30.04S
KENDALLVILLE + CLOUDY    36  32  87 W10       30.00S

$$

INZ028-029-035-036-043>045-051>053-021000-
WEST CENTRAL INDIANA

CITY           SKY/WX    TMP DP  RH WIND       PRES   REMARKS
CRAWFORDSVL +  CLOUDY    33  29  86 SW6       30.11R WCI  28
GREENCASTLE +  CLOUDY    34  30  86 W10G20    30.12R WCI  26
LAFAYETTE      CLOUDY    36  31  82 W7        30.09R
TERRE HAUTE    CLOUDY    35  29  78 SW6       30.13S WCI  30

$$

INZ030>032-037>040-046>048-054>057-064-065-021000-
CENTRAL INDIANA

CITY           SKY/WX    TMP DP  RH WIND       PRES   REMARKS
GREENWOOD *+   CLOUDY    36  30  78 W9        30.10S
INDIANAPOLIS   CLOUDY    36  28  73 W15       30.11R
-EAGLE CREEK   CLOUDY    36  28  73 W8        30.10R
KOKOMO +       CLOUDY    36  30  79 W12       30.07R
SHELBYVILLE    CLOUDY    37  29  72 W9        30.10R
ZIONSVILLE +   CLOUDY    34  29  82 W10       30.10R WCI  26

$$

INZ033-034-041-042-049-050-058-059-021000-
EAST CENTRAL INDIANA

CITY           SKY/WX    TMP DP  RH WIND       PRES   REMARKS
MUNCIE         CLOUDY    37  30  75 W10       30.07R

$$

INZ060-061-067>069-081>083-085>088-021000-
SOUTHWEST INDIANA

CITY           SKY/WX    TMP DP  RH WIND       PRES   REMARKS
EVANSVILLE     CLEAR     27  24  89 CALM      30.18R
HUNTINGBURG *+ CLEAR     27  25  93 CALM      30.17R

$$

INZ062-063-066-070>080-084-089>092-021000-
SOUTH CENTRAL AND SOUTHEAST INDIANA

CITY           SKY/WX    TMP DP  RH WIND       PRES   REMARKS
BLOOMINGTON    PTCLDY    31  27  85 SW5       30.12R WCI  26
MADISON *+     PTCLDY    32  28  86 SW3       30.14R
SEYMOUR +      PTCLDY    32  27  80 SW6       30.13R WCI  26

$$





USA.gov is the U.S. government's official web portal to all federal, state and local government web resources and services.